EW0923 Weather Reports


Display with metric or nautical units.
time (UTC)temp
F
wind
direction
speed
MPH
gust
MPH
rain 1hr
in
rain 24hr
in
rain mn
in
humidity
%
barometer
mb
20260502164024 55 338 2.0 8.0 0.00 0.00 0.00 53 1011.7
20260502163526 55 12 3.0 9.0 0.00 0.00 0.00 54 1012.0
20260502163103 55 17 3.0 9.0 0.00 0.00 0.00 56 1012.0
20260502162528 55 290 2.0 7.0 0.00 0.00 0.00 56 1012.0
20260502162030 55 19 1.0 7.0 0.00 0.00 0.00 58 1012.2
20260502161541 55 298 2.0 9.0 0.00 0.00 0.00 58 1012.0
20260502161030 54 319 2.0 9.0 0.00 0.00 0.00 60 1012.3
20260502160535 54 295 4.0 9.0 0.00 0.00 0.00 59 1012.3
20260502152026 55 323 2.0 12.0 0.00 0.00 0.00 63 1012.1
20260502151542 54 323 2.0 12.0 0.00 0.00 0.00 64 1012.1
20260502151027 54 334 2.0 7.0 0.00 0.00 0.00 64 1012.0
20260502150526 54 342 2.0 11.0 0.00 0.00 0.00 64 1012.0
20260502130527 53 296 2.0 8.0 0.00 0.00 0.00 71 1012.0
20260502123527 53 332 1.0 8.0 0.00 0.00 0.00 72 1012.2
20260502123039 53 317 1.0 5.0 0.00 0.00 0.00 72 1012.1
20260502122526 52 302 1.0 5.0 0.00 0.00 0.00 73 1012.3
20260502122026 52 299 1.0 5.0 0.00 0.00 0.00 74 1012.3
20260502121547 52 304 2.0 5.0 0.00 0.00 0.00 74 1012.2
20260502121026 52 307 1.0 8.0 0.00 0.00 0.00 75 1012.2
20260502120527 51 278 0.0 8.0 0.00 0.00 0.00 78 1012.3
20260502115529 51 0 0.0 3.0 0.00 0.00 0.00 78 1012.2
20260502115026 51 340 0.0 3.0 0.00 0.00 0.00 78 1012.0
20260502114546 50 296 1.0 3.0 0.00 0.00 0.00 78 1012.0
20260502114026 50 0 0.0 3.0 0.00 0.00 0.00 79 1011.9
20260502113530 50 302 1.0 3.0 0.00 0.00 0.00 79 1012.0
20260502113036 50 277 1.0 3.0 0.00 0.00 0.00 79 1012.0
20260502112525 50 279 0.0 2.0 0.00 0.00 0.00 80 1011.9
20260502112027 49 264 0.0 2.0 0.00 0.00 0.00 80 1012.0
20260502111548 49 271 0.0 1.0 0.00 0.00 0.00 81 1011.9
20260502111025 49 229 0.0 1.0 0.00 0.00 0.00 82 1011.9
20260502110526 49 0 0.0 1.0 0.00 0.00 0.00 82 1011.8
20260502110046 48 0 0.0 1.0 0.00 0.00 0.00 83 1011.8
20260502105526 48 244 0.0 0.0 0.00 0.00 0.00 83 1011.7
20260502105025 47 0 0.0 1.0 0.00 0.00 0.00 83 1011.6
20260502104541 47 0 0.0 1.0 0.00 0.00 0.00 83 1011.5
20260502104029 47 0 0.0 0.0 0.00 0.00 0.00 83 1011.6
20260502103526 47 0 0.0 0.0 0.00 0.00 0.00 83 1011.5
20260502103040 47 0 0.0 0.0 0.00 0.00 0.00 82 1011.5
20260502102525 47 0 0.0 0.0 0.00 0.00 0.00 82 1011.5
20260502102026 47 0 0.0 0.0 0.00 0.00 0.00 82 1011.3
20260502101545 48 0 0.0 1.0 0.00 0.00 0.00 81 1011.3
20260502101025 48 0 0.0 1.0 0.00 0.00 0.00 81 1011.1
20260502100528 48 244 0.0 1.0 0.00 0.00 0.00 80 1011.3
20260502091028 50 319 0.0 1.0 0.00 0.00 0.00 76 1011.3
20260502090528 50 227 0.0 3.0 0.00 0.00 0.00 75 1011.1
20260502071029 51 261 1.0 6.0 0.00 0.00 0.00 79 1011.1
20260502070530 51 254 2.0 6.0 0.00 0.00 0.00 79 1011.1
20260502070052 51 238 1.0 4.0 0.00 0.00 0.00 80 1011.2
20260502065529 51 254 1.0 4.0 0.00 0.00 0.00 81 1011.2
20260502065028 51 235 1.0 4.0 0.00 0.00 0.00 82 1011.2
20260502064547 51 252 0.0 4.0 0.00 0.00 0.00 83 1011.3
20260502064030 51 214 1.0 4.0 0.00 0.00 0.00 83 1011.4
20260502063529 51 0 1.0 4.0 0.00 0.00 0.00 83 1011.4
20260502063044 51 228 0.0 4.0 0.00 0.00 0.00 83 1011.3
20260502062529 51 278 0.0 4.0 0.00 0.00 0.00 83 1011.4
20260502062027 51 241 0.0 3.0 0.00 0.00 0.00 83 1011.4
20260502061540 51 234 1.0 3.0 0.00 0.00 0.00 83 1011.3
20260502061028 51 217 1.0 3.0 0.00 0.00 0.00 83 1011.4
20260502060526 51 265 1.0 5.0 0.00 0.00 0.00 83 1011.4
20260502060048 51 261 0.0 5.0 0.00 0.00 0.00 83 1011.5
20260502055526 51 240 1.0 4.0 0.00 0.00 0.00 83 1011.7
20260502055028 51 216 1.0 3.0 0.00 0.00 0.00 83 1011.7
20260502054552 51 0 0.0 3.0 0.00 0.00 0.00 83 1011.5
20260502054025 51 212 0.0 3.0 0.00 0.00 0.00 83 1011.5
20260502053525 51 170 1.0 4.0 0.00 0.00 0.00 83 1011.4
20260502053044 51 262 1.0 4.0 0.00 0.00 0.00 83 1011.4
20260502052528 51 0 0.0 4.0 0.00 0.00 0.00 83 1011.6
20260502052030 51 265 1.0 4.0 0.00 0.00 0.00 83 1011.7
20260502051539 51 232 1.0 5.0 0.00 0.00 0.00 83 1011.6
20260502051026 51 113 0.0 5.0 0.00 0.00 0.00 83 1011.6
20260502050526 51 233 2.0 5.0 0.00 0.00 0.00 83 1011.6
20260502050038 51 182 2.0 4.0 0.00 0.00 0.00 83 1011.5
20260502045526 51 260 1.0 4.0 0.00 0.00 0.00 83 1011.7
20260502045028 51 247 1.0 7.0 0.00 0.00 0.00 83 1011.5
20260502044551 51 267 1.0 7.0 0.00 0.00 0.00 83 1011.7
20260502044025 51 260 2.0 7.0 0.00 0.00 0.00 83 1011.6
20260502043525 51 183 1.0 6.0 0.00 0.00 0.00 82 1011.6
20260502043051 51 155 1.0 5.0 0.00 0.00 0.00 82 1011.7
20260502042525 51 192 1.0 5.0 0.00 0.00 0.00 82 1011.6
20260502042026 51 88 1.0 4.0 0.00 0.00 0.00 81 1011.6
20260502041547 51 221 1.0 7.0 0.00 0.00 0.00 81 1011.5
20260502041029 51 133 0.0 7.0 0.00 0.00 0.00 80 1011.5
20260502040525 51 156 1.0 5.0 0.00 0.00 0.00 80 1011.5
20260502040041 51 59 1.0 6.0 0.00 0.00 0.00 79 1011.5
20260502035526 51 260 2.0 6.0 0.00 0.00 0.00 79 1011.2
20260502035027 51 178 1.0 6.0 0.00 0.00 0.00 78 1011.3
20260502034545 51 274 1.0 5.0 0.00 0.00 0.00 77 1011.4
20260502034026 51 253 2.0 5.0 0.00 0.00 0.00 77 1011.1
20260502033525 51 100 1.0 5.0 0.00 0.00 0.00 76 1011.0
20260502033045 51 214 2.0 6.0 0.00 0.00 0.00 75 1011.0
20260502032525 51 153 1.0 6.0 0.00 0.00 0.00 74 1010.8
20260502032025 51 155 2.0 6.0 0.00 0.00 0.00 74 1010.6
20260502031544 51 158 2.0 6.0 0.00 0.00 0.00 73 1010.9
20260502031025 51 136 1.0 3.0 0.00 0.00 0.00 72 1011.0
20260502030525 51 149 1.0 3.0 0.00 0.00 0.00 72 1011.2
20260502030041 51 220 1.0 2.0 0.00 0.00 0.00 71 1011.4
20260502025525 52 151 0.0 2.0 0.00 0.00 0.00 71 1011.4
20260502025027 52 171 0.0 4.0 0.00 0.00 0.00 70 1011.2
20260502024540 52 140 1.0 4.0 0.00 0.00 0.00 69 1011.4
20260502024025 52 171 1.0 4.0 0.00 0.00 0.00 69 1011.2
20260502023525 52 236 1.0 4.0 0.00 0.00 0.00 68 1011.4
20260502023037 52 244 1.0 6.0 0.00 0.00 0.00 68 1011.8
20260502022525 52 208 2.0 6.0 0.00 0.00 0.00 67 1011.8
20260502022026 52 137 2.0 6.0 0.00 0.00 0.00 66 1011.9
20260502021548 52 181 1.0 6.0 0.00 0.00 0.00 65 1012.1
20260502021025 52 147 2.0 7.0 0.00 0.00 0.00 64 1011.9
20260502020525 52 113 3.0 10.0 0.00 0.00 0.00 63 1011.3
20260502020046 52 133 4.0 10.0 0.00 0.00 0.00 64 1011.5
20260502015526 52 121 2.0 6.0 0.00 0.00 0.00 64 1011.6
20260502015025 52 153 1.0 4.0 0.00 0.00 0.00 63 1011.8
20260502014551 53 114 1.0 4.0 0.00 0.00 0.00 63 1011.7
20260502014025 53 211 1.0 4.0 0.00 0.00 0.00 62 1011.7
20260502013525 53 132 1.0 4.0 0.00 0.00 0.00 62 1011.7
20260502013039 53 186 1.0 4.0 0.00 0.00 0.00 61 1011.5
20260502012525 53 247 1.0 5.0 0.00 0.00 0.00 61 1011.5
20260502012025 53 0 1.0 5.0 0.00 0.00 0.00 60 1011.5
20260502011548 54 0 1.0 4.0 0.00 0.00 0.00 60 1011.4
20260502011026 54 177 2.0 6.0 0.00 0.00 0.00 59 1011.4
20260502010525 54 195 1.0 8.0 0.00 0.00 0.00 58 1011.3
20260502010043 54 210 3.0 8.0 0.00 0.00 0.00 58 1011.3
20260502005525 54 223 1.0 6.0 0.00 0.00 0.00 57 1011.3
20260502005026 55 187 2.0 6.0 0.00 0.00 0.00 56 1011.2
20260502004536 55 257 2.0 6.0 0.00 0.00 0.00 55 1011.3
20260502004025 55 189 1.0 5.0 0.00 0.00 0.00 54 1011.2
20260502003524 55 203 1.0 6.0 0.00 0.00 0.00 54 1010.9
20260502003045 56 118 2.0 6.0 0.00 0.00 0.00 53 1010.6
20260502002526 56 208 1.0 6.0 0.00 0.00 0.00 52 1010.8
20260502002026 56 126 0.0 7.0 0.00 0.00 0.00 51 1010.8
20260502001545 57 236 2.0 7.0 0.00 0.00 0.00 50 1010.9
20260502001028 57 177 2.0 6.0 0.00 0.00 0.00 50 1010.9
20260502000525 58 235 1.0 7.0 0.00 0.00 0.00 50 1010.9
20260502000054 58 240 2.0 7.0 0.00 0.00 0.00 48 1010.9
20260501235526 59 0 1.0 9.0 0.00 0.00 0.00 48 1010.9
20260501235025 59 261 2.0 10.0 0.00 0.00 0.00 47 1010.8
20260501234540 60 153 1.0 10.0 0.00 0.00 0.00 46 1010.8
20260501234025 60 254 1.0 6.0 0.00 0.00 0.00 45 1010.8
20260501233529 60 285 2.0 6.0 0.00 0.00 0.00 44 1010.7
20260501233037 61 236 1.0 4.0 0.00 0.00 0.00 44 1010.6
20260501232525 61 255 1.0 4.0 0.00 0.00 0.00 44 1010.5
20260501232026 61 267 1.0 6.0 0.00 0.00 0.00 43 1010.5
20260501231550 61 275 0.0 6.0 0.00 0.00 0.00 42 1010.4
20260501231110 61 286 2.0 7.0 0.00 0.00 0.00 40 1010.4
20260501230526 62 291 2.0 8.0 0.00 0.00 0.00 40 1010.3
20260501230045 62 263 3.0 8.0 0.00 0.00 0.00 40 1010.3
20260501225525 62 259 1.0 7.0 0.00 0.00 0.00 40 1010.2
20260501225025 62 273 2.0 7.0 0.00 0.00 0.00 39 1010.3
20260501224544 62 231 1.0 10.0 0.00 0.00 0.00 39 1010.3
20260501224025 62 267 3.0 10.0 0.00 0.00 0.00 38 1010.2
20260501223525 62 296 3.0 10.0 0.00 0.00 0.00 39 1010.2
20260501223041 62 256 3.0 8.0 0.00 0.00 0.00 39 1010.3
20260501222526 62 272 2.0 8.0 0.00 0.00 0.00 39 1010.2
20260501222026 62 284 2.0 8.0 0.00 0.00 0.00 40 1010.2
20260501221543 63 304 1.0 8.0 0.00 0.00 0.00 40 1010.1
20260501221025 62 249 1.0 8.0 0.00 0.00 0.00 40 1010.3
20260501220525 62 224 3.0 9.0 0.00 0.00 0.00 39 1010.3
20260501220054 62 252 4.0 9.0 0.00 0.00 0.00 38 1010.3
20260501215525 63 306 2.0 8.0 0.00 0.00 0.00 38 1010.2
20260501215024 63 302 1.0 6.0 0.00 0.00 0.00 39 1010.2
20260501214545 63 300 2.0 7.0 0.00 0.00 0.00 39 1010.3
20260501214026 63 281 2.0 8.0 0.00 0.00 0.00 39 1010.2
20260501213527 63 294 2.0 8.0 0.00 0.00 0.00 39 1010.2
20260501213046 63 281 2.0 8.0 0.00 0.00 0.00 40 1010.2
20260501212525 63 342 1.0 9.0 0.00 0.00 0.00 40 1010.2
20260501212025 63 128 3.0 14.0 0.00 0.00 0.00 39 1010.2
20260501211541 63 298 4.0 14.0 0.00 0.00 0.00 40 1010.2
20260501211027 63 296 3.0 9.0 0.00 0.00 0.00 38 1010.3
20260501210525 62 292 2.0 9.0 0.00 0.00 0.00 39 1010.3
20260501210036 62 285 3.0 11.0 0.00 0.00 0.00 38 1010.3
20260501205525 62 277 5.0 11.0 0.00 0.00 0.00 37 1010.4
20260501205027 63 254 4.0 11.0 0.00 0.00 0.00 37 1010.3
20260501204545 63 281 2.0 11.0 0.00 0.00 0.00 36 1010.4
20260501204024 63 257 3.0 10.0 0.00 0.00 0.00 37 1010.4
20260501203529 63 240 2.0 7.0 0.00 0.00 0.00 37 1010.3
20260501203045 63 280 1.0 8.0 0.00 0.00 0.00 36 1010.4
20260501202524 63 282 2.0 12.0 0.00 0.00 0.00 37 1010.4
20260501202024 63 284 3.0 12.0 0.00 0.00 0.00 36 1010.2
20260501201554 63 283 4.0 10.0 0.00 0.00 0.00 37 1010.4
20260501201024 63 276 2.0 9.0 0.00 0.00 0.00 35 1010.4
20260501200528 63 271 2.0 9.0 0.00 0.00 0.00 36 1010.6
20260501200041 63 286 2.0 6.0 0.00 0.00 0.00 36 1010.5
20260501195525 63 299 2.0 9.0 0.00 0.00 0.00 37 1010.5
20260501195026 63 280 2.0 9.0 0.00 0.00 0.00 37 1010.7
20260501194546 63 284 2.0 7.0 0.00 0.00 0.00 36 1010.8
20260501194027 63 293 2.0 11.0 0.00 0.00 0.00 37 1010.8
20260501193529 63 211 3.0 11.0 0.00 0.00 0.00 36 1010.7
20260501193046 63 236 3.0 14.0 0.00 0.00 0.00 38 1010.8
20260501192528 63 303 2.0 14.0 0.00 0.00 0.00 38 1010.9
20260501192028 63 136 2.0 8.0 0.00 0.00 0.00 37 1010.9
20260501191543 63 234 1.0 8.0 0.00 0.00 0.00 37 1011.0
20260501191029 63 284 2.0 9.0 0.00 0.00 0.00 36 1011.3
20260501190528 63 296 2.0 9.0 0.00 0.00 0.00 35 1011.2
20260501190042 63 226 2.0 7.0 0.00 0.00 0.00 38 1011.2
20260501185528 62 140 1.0 5.0 0.00 0.00 0.00 36 1011.3
20260501185028 62 286 2.0 8.0 0.00 0.00 0.00 37 1011.5
20260501184538 62 288 4.0 9.0 0.00 0.00 0.00 37 1011.5
20260501184028 63 275 4.0 10.0 0.00 0.00 0.00 37 1011.6
20260501183532 63 281 3.0 10.0 0.00 0.00 0.00 39 1011.5
20260501183051 63 323 1.0 6.0 0.00 0.00 0.00 36 1011.6
20260501182528 63 302 1.0 9.0 0.00 0.00 0.00 38 1011.6
20260501182033 62 277 3.0 9.0 0.00 0.00 0.00 37 1011.7
20260501181546 63 252 2.0 5.0 0.00 0.00 0.00 36 1011.8
20260501181029 62 313 1.0 5.0 0.00 0.00 0.00 38 1011.7
20260501180534 62 15 1.0 8.0 0.00 0.00 0.00 36 1011.7
20260501180047 62 18 2.0 10.0 0.00 0.00 0.00 39 1011.7